Other Public Products
Issued by NWS Grand Forks, ND

Home | Current Version | Previous Version | Graphics & Text | Print | Product List | Glossary On
Versions: 1 2 3 4 5 6 7 8 9 10 11 12 13 14 15 16 17 18 19 20 21 22 23 24 25 26 27 28 29 30 31 32 33 34 35 36 37 38 39 40 41 42 43 44 45 46 47 48 49 50
000
FPUS83 KFGF 111410
OPUFGF
PRAIRIE TO PINES WEATHER ROUNDUP
NATIONAL WEATHER SERVICE EASTERN NORTH DAKOTA/GRAND FORKS ND
800 AM CST THU FEB 11 2016

 **SATELLITE DATA USED TO AUGMENT SKY COVER AT AUTOMATED STATIONS**
 *****  WEATHER ACROSS EASTERN NORTH DAKOTA  *****

CITY           SKY/WX    TMP DP  RH WIND       PRES   REMARKS
GRAND FORKS    CLOUDY     6  -1  73 SE7       30.26S WCI  -6
GRAND FORKS AF CLOUDY     7   0  72 SE5       30.25S WCI  -2
GRAND CITY NWS NOT AVBL
BUXTON         NOT AVBL
DEVILS LAKE    FLURRIES   7   4  87 SE3       30.18F
FARGO          CLOUDY     7  -1  70 CALM      30.27S
WAHPETON ARPT  CLOUDY     5   0  78 CALM      30.27F
$$

 *****  WEATHER ACROSS CENTRAL AND WESTERN NORTH DAKOTA  *****

CITY           SKY/WX    TMP DP  RH WIND       PRES   REMARKS
JAMESTOWN      CLOUDY     7   3  84 S7        30.17S WCI  -5
BISMARCK       LGT SNOW  20  14  77 E6        30.12F WCI  12
MINOT          CLOUDY    14   7  73 NE5       30.13S WCI   6
MINOT AFB      CLOUDY    11   9  90 E6        30.13S WCI   2
GARRISON         N/A     15  12  88 E7        30.10S WCI   5
WILLISTON      LGT SNOW  22  19  89 NE8       30.07S FOG     WCI  12
DICKINSON      LGT SNOW  22  20  92 E9        29.98S FOG     WCI  12
HETTINGER      LGT SNOW  29  27  92 S9        30.00R FOG     WCI  20
$$

 *****  OTHER OBSERVATIONS NORTHEAST NORTH DAKOTA  *****

CITY           SKY/WX    TMP DP  RH WIND       PRES   REMARKS
WALHALLA       HVY SNOW   7   5  92 S3        30.23F
LANGDON        CLOUDY     7   3  85 W5        30.16S WCI  -2
CAVALIER       FAIR       7   1  78 S6        30.25F WCI  -3
GRAFTON        CLOUDY     5   1  85 S6        30.27F WCI  -6
CANDO          NOT AVBL
FORT TOTTEN      N/A      6   3  86 SE3       29.95S
ROLLA          FLURRIES   7   5  92 CALM      30.15S
RUGBY          PTSUNNY    9   7  92 SE3       30.16S
 ***** THE ABOVE OBSERVATIONS ARE NON NWS ARE NOT QUALITY
        CONTROLLED AND MAY MIS-REPORT RAIN FOR SNOW...
$$

 *****  OTHER OBSERVATIONS SOUTHEAST NORTH DAKOTA *****

CITY           SKY/WX    TMP DP  RH WIND       PRES   REMARKS
COOPERSTOWN    NOT AVBL
VALLEY CITY    CLOUDY     5   1  85 S3        30.22S
OAKES          CLOUDY     9   5  85 SE7       30.20F WCI  -3
GWINNER        CLOUDY    10   5  79 E5        30.22F WCI   2
SHEYENNE NWR     N/A      4  -1  81 E3        29.95S
BUFFALO        NOT AVBL
WYNDMERE         N/A      5   1  85 E3          N/A
 ***** THE ABOVE OBSERVATIONS ARE NON NWS ARE NOT QUALITY
       CONTROLLED AND MAY MIS-REPORT RAIN FOR SNOW...
$$

  *****  WEATHER ACROSS NORTHERN MINNESOTA  *****

CITY           SKY/WX    TMP DP  RH WIND       PRES   REMARKS
FLAG ISLAND    CLOUDY    -4 -11  71 SW5       30.21S WCI -15
WARROAD        CLOUDY    -8 -11  84 CALM      30.23F
ROSEAU         CLOUDY    -8 -13  77 CALM      30.23F
HALLOCK        CLOUDY     3   0  85 S7        30.25F WCI  -9
THF RVR FALLS  CLOUDY    -2  -2 100 S3        30.25F
HALSTAD        NOT AVBL
FOSSTON        CLOUDY   -11 -17  77 CALM      30.23F
BAUDETTE       CLOUDY    -8 -14  74 CALM      30.21S
WASKISH        CLOUDY   -11 -15  84 CALM      30.23F
CROOKSTON      CLOUDY     1  -2  85 S3        30.27F
$$
  *****  WEATHER ACROSS CENTRAL AND WEST MINNESOTA  *****

CITY           SKY/WX    TMP DP  RH WIND       PRES   REMARKS
BEMIDJI        CLOUDY   -17 -22  78 CALM      30.22S
PARK RAPIDS    CLOUDY   -13 -19  75 CALM      30.22F
WADENA         CLOUDY    -6  -9  84 CALM      30.24S
DETROIT LAKES  CLOUDY     0  -6  78 CALM      30.23F
MOORHEAD       CLOUDY     5  -2  72 CALM      30.27F
FERGUS FALLS   CLOUDY     7   1  78 SE3       30.29S
ELBOW LAKE     CLOUDY     5   2  89 E3        30.26S
MORRIS MN      CLOUDY     5   1  85 CALM      30.25F
STAPLES        PTCLDY   -11 -15  84 CALM      30.25F
WHEATON        CLOUDY     9   3  78 CALM      30.27F
$$
  *****  WEATHER ELSEWHERE ACROSS MINNESOTA  *****

CITY           SKY/WX    TMP DP  RH WIND       PRES   REMARKS
DULUTH         CLOUDY    -9 -15  75 W6        30.20F WCI -22
INTRNTL FALLS  CLOUDY    -8 -13  78 SW5       30.21F WCI -19
ELY            CLOUDY   -15 -18  84 CALM      30.19F
CLOQUET        CLOUDY   -13 -18  77 W3        30.23S
BRAINERD       CLOUDY   -14 -19  79 CALM      30.27S
HIBBING        CLOUDY   -18 -22  82 CALM      30.22F
ALEXANDRIA     CLOUDY     5  -4  66 SE7       30.24F WCI  -7
SAINT CLOUD    CLOUDY    -4  -8  83 CALM      30.30F
MINNEAPOLIS    CLOUDY     5  -5  63 CALM      30.33S
$$

  *****  WEATHER ACROSS SOUTH DAKOTA  *****

CITY           SKY/WX    TMP DP  RH WIND       PRES   REMARKS
SIOUX FALLS    CLOUDY    13   5  70 S8        30.25R WCI   2
BROOKINGS      CLOUDY    12   7  80 S8        30.21F WCI   0
WATERTOWN      CLOUDY    12   6  77 S12       30.18F WCI  -2
HURON          CLOUDY    18  13  80 S7        30.20F WCI   9
SISSETON         N/A      8   3  80 S6        30.23F WCI  -2
ABERDEEN       CLOUDY    16  10  77 S7        30.20F WCI   6
MITCHELL       CLOUDY    18  13  80 SE10      30.22F WCI   6
PIERRE         CLOUDY    23  20  88 SE10      30.13R WCI  12
MOBRIDGE       LGT SNOW  21  18  88 SE9       30.09S FOG     WCI  11
RAPID CITY     FOG       27  27 100 S7        29.98R VSB 1/4 WCI  19
$$

  *****  SOME WEATHER IN NEARBY STATES *****

CITY           SKY/WX    TMP DP  RH WIND       PRES   REMARKS
GLASGOW MT     LGT SNOW  29  25  85 E10       30.02R FOG     WCI  20
GREAT FALLS MT CLOUDY    35  23  61 SW10      30.12R
CHEYENNE WY    CLOUDY    44  16  32 W21       30.12S
SCOTTSBLUFF NE PTCLDY    36  26  67 NW7       30.06F
OMAHA NE       CLOUDY    15   3  59 E5        30.33R WCI   8
DES MOINES IA  CLOUDY     8  -2  63 NE3       30.33R
DAVENPORT IA   CLEAR      8   1  73 NW3       30.34R
CHICAGO IL     MOSUNNY    8  -2  63 NW10      30.29R WCI  -6
EAU CLAIRE WI  CLOUDY    -7 -11  83 SW3       30.31R
LA CROSSE WI   CLOUDY    -2  -6  83 CALM      30.35R
$$

  *****  SOME NATIONAL WEATHER *****

CITY           SKY/WX    TMP DP  RH WIND       PRES   REMARKS
LA GUARDIA NY  MOSUNNY   26   3  37 W16G28    29.90R WCI  14
RALEIGH NC     SUNNY     26   7  44 VRB6      30.20R WCI  19
ATLANTA GA     SUNNY     34  17  50 CALM      30.19R
NEW ORLEANS LA MOSUNNY   54  46  74 S10       30.22R
OKLAHOMA CITY  PTCLDY    41  32  70 N15       30.14R
ALBUQUERQUE NM CLOUDY    35  20  54 N8        30.34S
SALT LAKE CITY FOG       28  27  96 NE5       30.48R VSB 1/4 WCI  23
LOS ANGELES CA PTCLDY    61  32  33 NE3       30.07S
BOISE ID       PTCLDY    30  29  96 N3        30.41S FOG
SEATTLE WA     CLOUDY    47  44  90 VRB3      30.19F
$$

*** WEATHER ACROSS MANITOBA...SASKATCHEWAN AND ONTARIO ***
                ***ONTARIO***

CITY           SKY/WX    TMP DP  RH WIND       PRES   REMARKS
GERALDTON      MOCLDY   -17 -20  83 W8        30.04F WCI -34
THUNDER BAY    PTCLDY   -15 -20  76 W7        30.23R WCI -31
SIOUX LOOKOUT  FLURRIES  -4  -8  84 W3        30.12F
TORONTO        MOSUNNY    3  -6  66 N10       30.01R WCI -12
BIG TROUT LK   FLURRIES -22 -27  76 W9        29.97F WCI -42
PICKLE LAKE    CRYSTALS -13 -20  70 W10       30.01F WCI -32
DRYDEN         FLURRIES  -6  -9  84 W10       30.13F WCI -23
KENORA         CLOUDY    -6  -9  84 W6        30.17S WCI -18
$$
                *** MANITOBA***

CITY           SKY/WX    TMP DP  RH WIND       PRES   REMARKS
BRANDON        FLURRIES   5   1  85 N5        30.20R WCI  -4
DAUPHIN        FLURRIES   5   1  85 NE6       30.26S WCI  -6
ISLAND LAKE    PTCLDY   -22 -27  76 W10       30.12S WCI -44
PILOT MOUND      N/A      5   3  92 NW2         N/A
THE PAS        PTCLDY   -15 -18  84 W8        30.30R WCI -32
THOMPSON       MOCLDY   -20 -26  76 NW8       30.18S WCI -39
WINNIPEG       MOCLDY     0  -6  78 SW5       30.25S WCI -10
LYNN LAKE      PTCLDY   -22 -27  76 W9        30.21S WCI -42
CHURCHILL      CLEAR    -26 -35  62 N24       30.12R BLWGSNOWWCI -58
GILLAM         PTCLDY   -26 -33  68 NW12      30.11R WCI -49
$$
                ***SASKATCHEWAN***

CITY           SKY/WX    TMP DP  RH WIND       PRES   REMARKS
ESTEVAN        FLURRIES  12   9  85 E7        30.13R WCI   2
KINDERSLEY     LGT SNOW  16  12  86 E13       30.13R WCI   2
LLOYDMINSTER   FLURRIES  12   9  85 E10       30.17R WCI  -1
PRINCE ALBERT  FLURRIES   5   1  85 CALM      30.28R
REGINA         FLURRIES  14  10  85 E6        30.14S WCI   5
YORKTON        FLURRIES   5   1  85 N10       30.20R WCC1F1C2F2C3F3C4F4C5F5C6F6C7F7C8F8C9F9CaFaCbFbCcFcCdFdCe!


USA.gov is the U.S. government's official web portal to all federal, state and local government web resources and services.